Погода в Иванине

Россия / Курская область     51°38′50″N   35°35′07″E
темп.,
°C
ветер,
м/с
пор.,
м/с
влажн.,
%
обл.,
%
осадки,
мм/ч
давл.,
гПа
погр.,
м
27 сентября, пн
пн2700:00+7сз6129294 0.0 1016487
03:00+8ссз6118499 0.0 1017580
06:00+8ссз61085100 0.0 1019641
09:00+9ссз5987100 0.0 1019622
12:00+11с6777100 0.1 1020937
15:00+12с676799 0.5 10201250
18:00+10с377918 0.3 1021164
21:00+7с499278 0.4 1022230
28 сентября, вт
вт2800:00+8с4991100 0.1 1022327
03:00+7с3895100 0.1 1023264
06:00+8ссв489399 0.1 1023364
09:00+8ссв4890100 0.3 1024544
12:00+8всв4785100 0.3 1026638
15:00+10св566899 0.3 10271089
18:00+8св5879100 0.0 1029588
21:00+7всв5885100 0.0 1030902
29 сентября, ср
ср2900:00+7всв5882100 0.0 1032563
03:00+6всв4779100 0.0 1032446
06:00+6св587784 0.0 1033411
09:00+6всв57701 0.0 1034425
12:00+10всв45525 0.0 10341105
15:00+11всв45455 0.0 10331259
18:00+8св35615 0.0 103388
21:00+6всв36683 0.0 103498
30 сентября, чт
чт3000:00+4всв237256 0.0 103537
03:00+4всв2274100 0.0 103515
06:00+3всв2276100 0.0 103617
09:00+7в236354 0.0 1036256
12:00+11в33477 0.0 1036951
15:00+12в22425 0.0 10351256
18:00+9всв22550 0.0 103411
21:00+7в22630 0.0 103516
1 октября, пт
пт100:00+6вюв22670 0.0 103616
03:00+5вюв22700 0.0 103610
06:00+4вюв11720 0.0 103710
09:00+8юв22604 0.0 1037188
12:00+12юв22475 0.0 1037891
15:00+13юв12435 0.0 10361238
18:00+10всв22560 0.0 103510
21:00+8в22610 0.0 103618